Location: Philipsburg
(46.3359°N, 113.2993°W)
Time: 02:18:36
(UTC+00:00)

N. Korean satellite - Visible Passes

Search period start: 21 January 2022 00:00
Search period end: 31 January 2022 00:00
Orbit: 446 x 491 km, 97.3° (Epoch: 20 January)

Date Brightness Start Highest point End Pass type
(mag) Time Alt. Az. Time Alt. Az. Time Alt. Az.
21 Jan 7.1 12:56:48 10° NNE 12:59:28 47° N 12:59:28 47° N visible
22 Jan 10.0 01:08:24 10° WSW 01:09:45 12° W 01:11:07 10° WNW visible
22 Jan 8.1 12:27:48 10° NNE 12:30:22 34° ENE 12:30:22 34° ENE visible
22 Jan 8.1 14:01:48 10° NNW 14:04:06 16° WNW 14:04:26 16° WNW visible
23 Jan 9.3 11:59:17 10° NE 12:01:17 18° ENE 12:01:17 18° ENE visible
23 Jan 7.3 13:31:54 10° N 13:35:10 32° WNW 13:35:21 32° WNW visible
24 Jan 6.4 13:02:28 10° N 13:06:06 72° WNW 13:06:16 71° W visible
25 Jan 10.3 01:14:57 10° W 01:15:26 10° W 01:15:56 10° W visible
25 Jan 7.5 12:33:21 10° NNE 12:36:54 48° E 12:37:11 47° ESE visible
25 Jan 8.3 14:07:40 10° NNW 14:09:39 14° WNW 14:11:14 11° W visible
26 Jan 9.0 12:04:41 10° NE 12:07:34 22° E 12:08:06 21° ESE visible
26 Jan 7.5 13:37:34 10° N 13:40:42 28° WNW 13:42:09 21° WSW visible
27 Jan 10.0 11:37:29 10° ENE 11:38:06 10° E 11:38:43 10° E visible
27 Jan 6.5 13:08:01 10° N 13:11:38 61° WNW 13:13:06 32° SW visible
28 Jan 7.2 12:38:48 10° NNE 12:42:24 56° E 12:44:03 29° SSE visible
28 Jan 8.5 14:13:30 10° NW 14:15:05 12° WNW 14:16:40 10° W visible
29 Jan 8.8 12:09:58 10° NE 12:13:03 25° E 12:15:01 16° SE visible
29 Jan 7.6 13:43:07 10° NNW 13:46:07 24° WNW 13:49:05 10° WSW visible
30 Jan 9.9 11:42:05 10° ENE 11:43:33 12° E 11:45:00 10° ESE visible
30 Jan 6.6 13:13:27 10° N 13:17:00 52° WNW 13:20:07 13° SSW visible
